Tracking 31027 objects as of 19-Jul-2025
HD Live streaming from Space Station
objects crossing your sky now

STARLINK-32491

Track STARLINK-32491 now!
10-day predictions
STARLINK-32491 is classified as:


NORAD ID: 62043
Int'l Code: 2024-216M
Perigee: 489.5 km
Apogee: 490.8 km
Inclination: 43.0 °
Period: 94.3 minutes
Semi major axis: 6861 km
RCS: Unknown
Launch date: November 21, 2024
Source: United States (US)
Launch site: AIR FORCE EASTERN TEST RANGE (AFETR)
Your satellite tracking list
KL-BETA B
Track 1 satellite(s)




NASA's NSSDC Master Catalog

Two Line Element Set (TLE):
1 62043U 24216M   25199.89721407  .00018517  00000-0  68045-3 0  9992
2 62043  42.9997 144.1394 0000899 288.8646  71.2108 15.27593478 37854
Source of the keplerian elements: AFSPC